Weather History for Oxford, CT

Change the Weather History Date:

Friday, November 30, 2012

  Actual Average Record
Temperature  
Mean Temperature 32 °F -  
Max Temperature 37 °F 42 °F 60 °F (2001)
Min Temperature 28 °F 27 °F 15 °F (2013)
Degree Days  
Heating Degree Days 32    
Moisture  
Dew Point 20 °F    
Average Humidity 63    
Maximum Humidity 74    
Minimum Humidity 51    
Precipitation  
Precipitation 0.00 in - - ()
Sea Level Pressure  
Sea Level Pressure 30.44 in    
Wind  
Wind Speed 7 mph (ENE)    
Max Wind Speed 12 mph    
Max Gust Speed 17 mph    
Visibility 10 miles    
Events      
Averages and records for this station are not official NWS values.
T = Trace of Precipitation, MM = Missing Value Source: NWS Daily Summary

Daily Weather History Graph

Daily Weather History Graph

Search for Another Location

Airport:

Trip Planner

Search our weather history database for the weather conditions in past years. The results will help you decide how hot, cold, wet, or windy it might be!

Date:

Astronomy

Nov. 30, 2012 Rise Set
Actual Time 6:58 AM EST 4:23 PM EST
Civil Twilight 6:28 AM EST 4:54 PM EST
Nautical Twilight 5:53 AM EST 5:28 PM EST
Astronomical Twilight 5:20 AM EST 6:02 PM EST
Moon 6:16 PM EST (11/30) 8:28 AM EST (11/30)
Length of Visible Light 10h 26m
Length of Day
9h 24m
Waning Gibbous, 96% of the Moon is Illuminated
Nov 30
Waning Gibbous
Dec 6
Last Quarter
Dec 13
New
Dec 20
First Quarter
Dec 28
Full

Hourly Weather History & Observations

Time (EST) Temp. Windchill Dew Point Humidity Pressure Visibility Wind Dir Wind Speed Gust Speed Precip Events Conditions
5:45 AM 33.8 °F 28.6 °F 21.2 °F 60% 30.34 in 10.0 mi NNW 5.8 mph - N/A   Clear
6:45 AM 28.4 °F 21.2 °F 21.2 °F 74% 30.37 in 10.0 mi NNE 6.9 mph - N/A   Clear
7:45 AM 30.2 °F 24.3 °F 21.2 °F 69% 30.39 in 10.0 mi North 5.8 mph - N/A   Clear
8:45 AM 37.4 °F 32.8 °F 24.8 °F 60% 30.40 in 10.0 mi NE 5.8 mph - N/A   Clear
9:45 AM 35.6 °F 31.7 °F 23.0 °F 60% 30.42 in 10.0 mi NE 4.6 mph - N/A   Mostly Cloudy
10:45 AM 37.4 °F 32.8 °F 26.6 °F 65% 30.43 in 10.0 mi East 5.8 mph - N/A   Clear
11:45 AM 37.4 °F 32.1 °F 24.8 °F 60% 30.41 in 10.0 mi ENE 6.9 mph - N/A   Mostly Cloudy
12:55 PM 37.4 °F 32.8 °F 26.6 °F 65% 30.41 in 10.0 mi East 5.8 mph - N/A   Overcast
2:45 PM 35.6 °F 29.9 °F 24.8 °F 65% 30.40 in 10.0 mi ENE 6.9 mph - N/A   Overcast
3:45 PM 33.8 °F 27.7 °F 23.0 °F 65% 30.43 in 10.0 mi ENE 6.9 mph - N/A   Overcast
4:45 PM 32.0 °F 26.4 °F 21.2 °F 64% 30.44 in 7.0 mi East 5.8 mph - N/A   Overcast
5:45 PM 30.2 °F 23.4 °F 19.4 °F 64% 30.45 in 7.0 mi ENE 6.9 mph - N/A   Overcast
6:45 PM 28.4 °F 19.7 °F 21.2 °F 74% 30.47 in 10.0 mi ENE 9.2 mph - N/A   Overcast
7:45 PM 28.4 °F 18.5 °F 19.4 °F 69% 30.48 in 10.0 mi East 11.5 mph - N/A   Overcast
9:15 PM 28.4 °F 20.4 °F 17.6 °F 64% 30.48 in 10.0 mi ENE 8.1 mph - N/A   Overcast
9:35 PM 28.4 °F 18.5 °F 17.6 °F 64% 30.48 in 10.0 mi ENE 11.5 mph 17.3 mph N/A   Overcast
9:55 PM 28.4 °F 19.7 °F 17.6 °F 64% 30.48 in 10.0 mi ENE 9.2 mph - N/A   Overcast
10:15 PM 28.4 °F 20.4 °F 15.8 °F 59% 30.48 in 10.0 mi ENE 8.1 mph 16.1 mph N/A   Overcast
10:35 PM 28.4 °F 20.4 °F 15.8 °F 59% 30.49 in 10.0 mi ENE 8.1 mph - N/A   Overcast
10:55 PM 28.4 °F 22.2 °F 14.0 °F 55% 30.49 in 10.0 mi ENE 5.8 mph - N/A   Overcast
11:15 PM 28.4 °F 19.7 °F 14.0 °F 55% 30.49 in 10.0 mi ENE 9.2 mph - N/A   Overcast
11:35 PM 28.4 °F 20.4 °F 12.2 °F 51% 30.50 in 10.0 mi ENE 8.1 mph - N/A   Overcast